Theta_e
323 323 322 321 320 321 322 322 320 320 321 322 322 322 323 323 323 323 323 323 323 323 322 322 322 322 322 322 322 323 323 323 323 321 321 321 322 322 321 321 322 322 323 322 322 321 321 321 320 320 319 318 319 319 319 319 319 319 318 316 315 314 312 311 310 309 309 308 308
323 322 320 317 317 320 322 321 320 320 321 322 322 323 323 324 323 323 323 323 323 323 323 323 322 322 321 321 321 322 322 323 322 321 321 321 322 321 321 321 322 323 322 323 322 322 321 321 320 320 319 318 318 318 319 319 319 319 318 315 314 314 312 311 311 310 309 308 308
323 322 321 321 321 321 322 322 321 321 321 322 322 323 323 323 324 323 323 323 324 324 323 323 322 321 321 321 321 321 321 322 322 321 321 322 322 322 321 322 323 322 322 323 322 322 321 321 320 319 318 318 318 318 318 319 319 318 317 315 315 314 313 312 311 310 310 309 308
323 323 322 322 321 321 322 322 321 321 321 322 322 323 323 323 324 324 324 324 324 324 323 323 322 322 321 320 320 320 320 319 320 321 321 321 321 321 321 322 322 323 323 323 322 322 321 321 320 319 319 318 318 318 318 318 318 318 318 316 316 315 314 313 312 311 311 310 309
323 322 322 322 321 321 321 321 321 321 321 322 322 322 323 323 324 324 324 323 323 323 323 323 323 322 321 320 320 320 319 318 317 319 321 321 321 321 322 322 322 322 323 323 322 322 321 321 320 320 320 319 319 318 318 318 318 318 318 317 316 315 314 313 312 312 311 310 310
323 322 322 322 321 321 321 321 320 321 321 322 322 322 322 323 323 323 323 323 323 323 323 321 321 320 320 321 320 319 319 319 318 319 320 320 321 321 321 321 321 322 322 322 322 322 321 320 320 320 320 320 319 319 319 319 318 318 317 317 317 316 315 314 313 312 311 310 309
323 322 322 321 321 321 321 321 321 321 322 322 322 322 322 322 322 322 322 323 323 323 322 319 320 320 320 321 320 319 319 318 318 319 319 320 320 320 320 320 320 321 321 322 322 321 321 320 320 319 318 317 319 319 319 319 318 318 317 316 316 316 315 315 313 312 311 310 309
323 322 322 322 321 321 321 321 321 321 321 321 321 322 322 322 322 322 322 322 323 323 322 321 321 321 321 321 320 319 319 318 318 318 318 318 318 318 319 319 319 319 320 320 320 320 320 320 320 319 318 318 319 319 319 319 319 317 317 316 316 316 316 315 314 313 311 310 309
323 322 322 322 321 321 321 320 320 320 321 321 322 321 322 322 322 322 322 322 322 322 322 322 321 321 321 321 320 320 319 319 318 318 317 317 317 317 318 318 318 318 318 319 319 318 319 319 319 318 318 318 318 318 319 319 318 317 317 316 316 316 316 315 315 313 312 310 309
322 322 322 322 321 321 321 321 321 320 320 321 321 321 320 317 320 321 322 322 321 322 322 322 321 321 321 320 320 320 320 319 318 317 317 317 316 316 317 317 317 317 317 318 318 318 318 318 318 317 317 317 318 318 318 318 318 317 316 316 315 315 315 315 314 313 311 310 310
322 322 322 321 321 321 320 321 320 320 320 321 321 321 320 317 320 321 321 322 322 322 322 322 321 321 321 320 320 320 320 320 318 318 317 317 316 316 317 317 316 317 317 317 318 317 317 317 317 317 317 317 317 317 317 317 317 316 316 316 315 315 314 314 313 312 311 311 310
322 322 322 321 321 321 320 321 320 320 320 320 321 321 321 321 321 321 321 321 321 321 321 322 321 321 321 320 320 320 319 319 319 318 317 317 317 316 316 316 316 316 317 317 318 317 317 317 317 317 317 317 317 317 317 317 317 316 316 315 315 315 314 313 312 312 312 312 311
322 322 321 322 321 321 321 320 320 320 320 320 321 321 321 321 321 321 321 321 321 321 321 321 321 321 321 320 320 320 320 319 319 318 317 317 317 317 317 317 317 317 317 317 318 318 317 317 317 317 317 317 317 317 317 317 316 316 316 315 315 314 314 313 312 312 312 311 311
322 322 322 321 321 320 320 320 320 320 320 320 320 321 321 321 320 320 320 321 321 321 321 321 320 321 321 321 320 320 320 319 319 319 318 317 317 317 317 317 317 317 317 317 318 318 317 317 317 317 317 316 317 317 317 317 316 316 315 315 315 315 314 314 313 312 312 311 310
322 322 321 321 321 320 320 320 320 320 320 319 320 320 320 321 320 319 320 321 321 321 321 321 320 320 320 321 321 320 320 319 319 318 318 317 317 317 317 317 317 317 317 317 318 317 318 317 317 317 317 316 316 317 317 317 316 316 316 315 314 314 314 314 313 313 312 311 311
322 322 321 321 320 320 320 320 320 320 319 319 320 320 320 321 320 319 319 320 321 321 321 321 321 321 320 319 320 320 320 319 319 319 318 317 317 317 317 317 317 317 317 317 317 317 318 317 317 317 317 317 317 317 317 317 316 316 315 315 315 315 314 314 314 313 312 311 311
321 321 321 320 320 320 320 320 320 320 319 320 320 320 320 320 320 319 318 319 320 320 320 320 320 320 320 319 319 319 319 319 319 319 318 318 318 317 317 317 317 317 317 317 317 317 317 318 318 318 317 317 317 317 317 317 317 316 316 315 315 315 314 314 314 313 313 311 310
321 321 321 320 320 320 320 320 320 320 320 319 319 320 320 320 320 319 318 318 319 320 319 319 319 319 319 319 319 319 319 319 319 319 319 318 318 317 317 317 317 317 317 317 317 317 317 317 317 318 318 318 317 317 317 317 316 316 315 315 315 314 314 314 313 313 312 311 310
321 321 321 320 320 320 319 319 319 320 320 319 320 320 320 320 319 319 319 319 319 319 319 319 319 319 319 318 319 318 317 319 319 319 319 318 318 318 318 318 318 318 317 317 317 317 317 317 317 317 318 318 317 318 317 317 316 316 315 314 314 314 314 314 313 313 312 311 310
321 321 321 321 320 320 320 319 319 320 320 319 320 319 319 319 319 319 319 319 318 319 320 319 319 318 318 318 318 318 317 319 319 319 319 319 318 318 318 318 318 318 318 318 317 317 317 317 317 317 317 317 317 317 317 317 316 315 315 314 314 314 314 314 314 313 313 312 312
322 321 321 321 320 320 320 320 320 320 319 319 319 319 319 319 319 319 319 318 319 319 320 319 319 318 318 318 318 318 318 318 319 319 319 319 319 318 318 318 318 318 318 318 318 317 317 317 317 317 317 317 317 317 317 317 316 315 315 315 314 314 314 314 314 314 313 314 313
322 321 321 321 321 320 320 321 321 320 320 320 319 319 319 319 319 319 319 318 319 319 319 319 319 318 318 318 318 318 318 318 319 319 319 319 319 319 319 319 318 318 318 318 318 318 318 317 317 317 317 317 316 316 316 316 316 315 315 315 314 314 314 314 314 314 314 314 314
322 322 322 321 321 320 320 320 320 320 320 320 319 319 319 319 319 319 319 319 318 318 319 319 319 319 319 319 318 318 318 318 319 319 319 319 319 319 319 319 319 319 318 318 318 318 318 318 317 317 317 316 316 316 315 315 315 315 315 314 314 314 314 313 314 314 314 314 315
322 322 322 322 322 321 320 320 320 320 320 320 320 319 319 319 319 319 319 318 318 318 318 319 319 318 318 318 318 318 318 318 318 318 319 319 319 319 319 319 319 318 318 318 317 316 316 316 317 316 316 316 315 315 315 315 315 315 314 314 314 313 313 313 313 313 314 314 314
323 322 322 322 322 321 321 320 320 320 320 320 320 319 319 319 319 319 319 318 318 318 318 318 319 319 319 319 318 318 318 318 317 317 318 319 319 319 319 319 319 318 318 316 308 306 306 308 312 315 316 315 315 315 314 314 314 314 314 314 313 313 313 313 313 313 313 314 314
322 322 322 322 321 321 320 320 319 319 320 320 319 319 319 319 319 319 319 318 318 318 318 318 318 317 316 318 318 318 317 318 317 316 316 317 317 318 318 318 318 318 317 311 303 301 301 302 304 307 312 316 315 314 313 313 313 313 313 313 313 313 313 313 313 313 313 314 314
322 322 322 322 321 321 320 320 320 320 319 320 319 319 319 319 319 319 318 318 317 317 317 317 317 315 314 318 318 317 317 317 316 316 315 315 315 316 317 317 317 317 314 307 301 299 299 300 300 302 306 314 314 314 313 314 313 312 312 312 312 312 312 312 312 312 313 313 314
322 322 321 322 321 320 319 319 320 319 319 320 319 319 319 319 318 318 318 317 317 317 317 317 317 316 316 317 317 316 316 316 316 315 315 314 314 314 315 316 316 314 310 303 300 299 299 300 300 300 302 308 314 315 314 314 313 312 312 312 312 312 312 312 312 312 312 312 313
321 321 321 321 320 320 319 319 319 319 319 319 319 319 319 318 318 318 317 317 317 317 317 317 316 317 317 316 316 316 316 315 315 314 314 313 313 313 314 315 315 311 305 300 299 300 300 300 300 299 300 303 311 315 315 314 314 313 313 313 312 312 312 312 312 312 312 312 312
321 321 321 320 319 319 319 318 319 319 319 319 319 319 318 318 318 317 317 317 317 316 316 316 317 316 316 315 315 315 315 315 314 314 314 313 313 313 313 312 313 310 304 298 299 300 300 300 300 299 299 300 307 313 316 315 315 314 314 313 313 313 312 312 311 311 311 311 311
320 320 320 320 319 319 319 318 318 318 319 319 319 318 318 317 317 317 317 317 316 315 314 315 316 315 315 314 314 314 314 314 314 314 314 313 311 311 312 312 312 309 303 296 297 299 299 300 300 299 298 298 304 311 315 315 314 313 312 310 309 308 308 308 307 306 304 305 307
319 320 319 319 319 318 318 318 318 318 318 319 318 318 317 316 316 316 316 316 315 315 314 315 315 314 314 314 314 314 314 314 314 314 314 313 313 312 312 312 312 308 302 295 296 297 297 298 298 297 297 296 301 307 312 312 311 306 302 299 297 296 296 297 297 297 297 299 300
319 319 319 319 318 318 318 318 318 318 318 317 317 317 316 316 316 316 316 316 315 315 315 315 314 314 313 313 313 313 313 313 313 312 311 312 312 312 312 311 312 307 300 294 294 294 295 295 296 295 294 294 298 304 308 309 304 299 294 293 292 292 292 293 293 294 293 293 294
319 319 319 318 318 318 317 317 317 317 317 317 317 317 316 316 315 315 315 315 315 315 315 314 314 314 314 314 313 313 312 312 312 312 312 312 312 312 311 312 310 301 293 291 291 291 291 292 293 293 293 293 298 302 305 302 297 293 291 290 290 289 289 289 289 290 290 290 290
319 318 318 318 318 318 317 317 317 317 316 316 316 316 316 315 315 315 315 313 313 314 315 314 314 314 313 313 313 312 311 310 311 311 311 311 312 311 311 311 303 295 290 290 290 290 289 290 291 292 293 294 300 302 300 295 293 291 289 288 288 287 287 287 287 287 288 289 289
319 318 318 317 318 318 317 317 316 316 316 316 315 315 315 315 315 315 314 312 312 313 314 313 313 313 312 311 312 311 309 309 308 307 306 305 306 307 307 306 299 294 291 290 290 289 289 290 291 293 295 299 300 298 295 292 290 289 287 286 286 286 286 286 286 286 286 287 287
319 318 318 318 317 317 317 317 316 316 315 315 315 315 315 315 315 315 314 312 313 313 313 313 312 313 312 310 308 305 302 301 298 296 294 293 295 297 299 299 295 292 290 290 290 289 290 290 292 294 297 299 298 295 293 290 289 287 286 285 285 285 285 285 285 285 285 285 286
319 318 318 317 317 317 317 317 316 316 315 315 315 315 315 315 315 315 314 311 313 313 313 313 313 311 308 303 296 292 290 290 291 291 291 291 291 292 293 294 293 291 290 290 290 290 290 290 292 295 297 298 296 293 291 289 287 286 285 284 284 284 284 284 284 284 284 284 285
319 318 318 318 317 317 317 317 316 316 315 315 315 315 315 315 315 314 313 312 314 314 313 310 308 303 298 294 293 291 289 289 288 289 289 289 289 289 290 291 291 291 291 290 290 290 290 291 293 295 296 295 294 292 290 287 286 285 284 283 283 283 283 283 283 283 283 284 285
318 318 318 318 318 318 317 317 316 316 316 315 315 315 315 314 314 314 314 313 312 310 306 301 298 296 294 291 290 289 287 287 287 287 287 288 288 288 289 289 290 291 291 291 291 291 292 293 293 294 294 294 293 291 289 287 285 284 283 282 282 282 282 282 282 282 282 282 283
318 318 318 318 318 317 317 317 317 317 316 316 315 314 314 313 312 311 310 307 303 300 297 296 294 293 291 290 288 287 287 286 286 287 287 287 287 287 288 288 290 291 292 292 292 292 292 293 293 293 293 292 291 290 288 286 284 283 282 282 281 281 280 280 281 281 281 281 281
Wind_Speed
9 9 8 8 7 7 6 5 5 6 6 7 7 6 6 6 6 7 6 6 7 7 7 7 7 7 8 11 14 15 15 15 13 12 12 13 14 14 15 17 19 18 16 14 13 12 11 11 10 8 7 6 8 7 6 5 6 7 8 11 12 13 13 12 12 11 11 10 8
10 10 9 8 7 6 5 5 5 5 6 7 7 6 6 6 6 6 7 7 7 7 7 7 7 8 10 12 14 15 16 15 14 13 12 12 12 12 12 12 14 15 16 15 14 12 11 11 10 8 6 5 7 7 8 7 7 7 10 13 13 12 11 11 10 10 10 9 7
11 10 10 9 8 7 6 6 6 7 7 7 6 6 6 5 5 6 6 7 7 8 7 7 8 9 11 12 12 14 15 16 15 14 12 11 11 11 10 9 11 13 14 15 15 13 11 11 9 8 6 6 7 7 8 9 8 9 10 13 12 10 10 9 9 8 8 7 7
11 11 11 11 11 10 8 7 8 8 8 7 6 6 6 5 5 5 5 6 7 7 7 7 8 10 11 11 12 12 12 14 15 14 12 11 11 11 11 10 10 11 13 15 15 14 13 12 9 7 6 7 8 8 8 8 9 9 9 10 10 10 10 9 8 7 6 6 7
12 11 11 10 11 10 9 7 8 9 8 7 6 6 6 5 5 5 5 6 6 7 8 9 9 10 11 11 12 11 11 11 12 12 12 11 11 11 11 11 11 12 13 14 16 16 15 14 9 7 7 8 8 8 8 9 9 9 8 8 9 10 10 9 8 6 6 6 6
11 11 11 10 11 10 8 7 9 9 8 7 7 7 7 6 6 6 6 7 7 8 9 9 9 10 11 12 12 11 10 10 10 10 11 12 12 12 12 13 13 12 12 13 15 16 16 14 10 8 7 7 7 8 8 9 8 8 8 8 9 9 10 10 8 7 6 7 8
11 11 11 11 11 10 9 8 9 9 9 8 9 9 9 8 8 8 8 7 7 8 8 7 8 10 11 13 13 12 11 10 9 10 11 12 12 13 14 14 14 13 13 13 14 14 14 14 10 8 7 6 6 7 9 9 8 8 8 9 9 9 10 11 9 8 8 10 11
11 11 12 12 12 12 11 10 9 9 9 8 9 10 11 10 10 10 9 8 8 7 7 7 9 11 12 14 14 13 13 12 11 10 11 11 13 14 15 15 14 14 13 12 12 12 12 11 9 9 8 6 6 7 8 10 10 10 10 10 9 10 10 11 11 10 10 11 12
11 11 11 12 12 12 11 11 10 10 9 9 10 11 11 11 11 10 9 8 8 7 7 7 10 11 13 14 15 15 14 13 12 11 11 11 12 13 14 14 14 14 13 12 12 12 11 9 8 8 8 7 6 7 9 12 12 12 12 11 10 11 11 12 12 12 11 11 11
11 11 11 11 12 12 11 11 11 11 10 10 10 10 10 9 10 10 9 7 7 7 8 9 11 12 13 14 14 15 15 14 13 13 12 11 12 13 13 12 13 13 12 11 11 11 11 8 8 8 8 7 8 8 10 12 13 14 13 10 11 13 14 14 14 13 12 11 11
12 12 11 11 12 11 11 11 10 10 10 10 10 10 9 9 9 9 8 6 7 8 9 10 12 13 14 14 14 14 15 14 14 13 13 12 12 13 13 12 13 13 13 12 11 10 9 8 9 10 10 9 9 9 10 12 13 14 14 12 13 15 16 16 14 13 11 11 11
12 12 12 11 12 11 11 10 9 9 10 10 10 10 9 9 9 8 8 8 8 9 9 10 12 13 13 12 13 13 14 15 15 15 14 14 14 14 13 13 13 14 13 12 11 9 9 9 10 11 12 11 9 9 11 12 12 13 14 14 15 16 16 16 15 13 11 11 11
13 12 12 12 12 12 11 10 9 9 9 10 10 9 9 9 9 9 8 9 9 8 8 9 10 11 12 12 12 12 13 14 15 15 15 15 15 15 15 14 14 14 13 12 11 9 9 10 12 12 13 12 10 10 11 13 12 13 14 15 16 16 16 16 14 13 11 11 11
13 13 13 13 13 12 11 10 9 8 9 10 9 9 9 8 8 8 8 9 9 8 8 8 8 9 10 12 12 12 12 13 14 14 15 15 16 16 16 15 14 14 13 11 11 10 11 11 12 12 13 12 12 12 12 12 13 13 15 16 17 18 18 17 15 13 12 12 11
12 13 13 13 13 12 11 11 9 8 9 9 9 9 8 8 8 8 8 9 9 8 7 8 8 8 10 12 12 13 13 12 13 13 14 15 16 16 17 16 15 14 13 12 11 11 12 12 12 12 12 12 12 12 12 12 13 14 15 16 17 18 18 18 16 14 13 12 12
12 13 13 13 13 12 11 11 9 8 9 9 9 9 8 8 8 8 8 9 8 7 7 8 8 8 9 10 12 13 13 13 13 13 13 14 15 16 16 16 16 15 14 13 12 12 12 12 11 11 11 11 11 12 12 13 14 15 16 17 18 18 18 18 18 16 15 13 12
13 13 13 13 13 13 12 11 9 9 9 9 10 9 9 8 7 8 8 9 8 7 8 8 8 8 8 9 10 11 12 13 13 13 13 13 15 15 16 16 16 15 15 14 13 13 12 11 10 10 10 11 11 11 12 14 15 16 18 18 19 19 19 19 19 18 16 14 13
13 14 14 14 14 14 13 13 11 10 10 10 10 10 9 8 8 8 8 8 8 9 9 9 8 8 8 9 9 9 10 12 13 13 13 13 15 15 15 15 15 15 15 14 14 13 13 12 11 11 10 10 11 12 13 14 16 17 19 19 19 19 19 19 18 17 15 13 12
14 14 14 15 15 15 14 13 12 12 11 11 11 10 10 9 9 9 9 9 9 9 9 9 9 8 9 9 9 8 8 11 12 13 13 14 14 15 15 15 15 15 14 14 14 14 14 13 13 12 11 11 11 12 13 14 16 17 18 18 18 17 17 16 15 14 12 11 9
15 15 15 15 15 14 14 13 12 12 11 11 11 11 11 10 10 10 10 10 10 9 10 9 9 9 9 9 9 8 8 8 10 12 13 13 14 14 15 15 15 15 15 15 14 14 14 14 14 13 13 12 12 12 13 14 15 15 16 15 15 14 14 13 12 11 10 9 8
15 14 14 14 14 14 13 13 12 12 11 11 11 11 11 11 11 11 11 11 10 10 10 10 9 9 10 10 10 9 8 6 8 9 11 12 13 14 14 14 14 14 14 14 14 14 14 14 14 13 13 12 12 12 12 12 13 13 14 13 12 12 12 11 11 11 10 10 9
14 13 13 13 13 13 13 13 12 12 12 11 11 11 12 11 11 11 11 10 10 10 10 10 10 10 10 10 10 9 8 7 7 8 9 10 11 12 13 13 13 14 14 14 14 14 14 14 13 13 12 11 11 11 11 11 12 13 13 13 12 12 11 11 11 11 11 12 12
13 13 12 12 13 12 12 12 12 12 12 11 11 11 12 11 11 11 11 10 10 10 11 10 10 10 10 10 10 10 9 8 8 8 8 8 9 10 11 11 12 13 13 13 13 13 13 12 12 12 11 10 11 11 11 12 13 13 14 14 13 12 11 11 10 11 11 12 13
12 12 12 11 12 12 12 12 12 12 12 12 11 11 11 11 11 11 11 11 11 11 11 10 9 10 10 10 11 11 11 10 10 9 9 9 9 9 10 10 11 11 11 10 11 11 11 10 11 10 10 10 10 10 11 12 13 14 14 14 13 12 11 10 9 10 10 11 12
12 12 12 11 12 13 13 13 13 12 12 12 11 11 11 11 11 11 11 11 11 11 11 10 10 10 10 10 11 11 11 11 11 11 10 10 9 9 9 9 9 9 8 8 9 10 10 9 9 9 9 9 9 9 10 10 11 12 12 12 11 11 10 9 9 9 9 10 11
12 12 12 12 12 13 13 13 13 12 12 11 11 11 11 11 11 11 11 11 11 11 11 11 10 9 9 10 11 11 11 11 11 11 10 10 10 9 9 8 7 7 7 7 9 10 11 10 9 9 8 8 8 8 8 8 9 9 9 9 9 9 8 8 8 8 8 9 9
13 13 12 12 12 13 13 12 12 12 12 11 11 11 11 11 10 11 11 11 11 11 11 10 10 9 8 9 10 11 11 10 10 10 9 9 9 10 9 8 7 6 7 8 10 12 12 11 11 10 9 8 8 7 7 7 7 7 7 7 7 7 7 8 8 7 7 7 8
13 13 12 13 12 12 12 12 12 12 12 11 12 11 11 11 11 11 11 11 11 10 10 10 9 8 7 8 9 10 10 9 8 8 9 9 9 10 9 8 7 7 8 10 12 13 13 13 12 11 10 8 8 7 7 6 6 6 5 5 5 6 6 6 6 6 6 7 7
13 13 12 13 12 12 12 12 12 12 12 11 11 11 11 11 11 11 11 11 11 11 10 9 8 7 7 7 8 8 9 9 8 8 8 8 9 9 9 9 8 8 9 12 14 15 15 15 14 13 12 10 7 6 5 5 5 5 4 4 5 5 6 6 6 6 6 7 7
12 12 12 12 12 12 12 12 12 12 11 11 11 11 11 11 11 11 11 11 11 11 9 8 8 8 8 8 7 7 8 8 8 7 8 9 9 9 9 9 9 9 10 13 14 15 16 16 15 14 13 12 9 7 6 5 5 5 5 5 5 6 7 7 8 8 8 7 8
12 12 12 12 12 12 12 12 12 12 11 11 11 12 12 12 12 11 11 11 10 9 8 8 9 9 9 8 7 7 8 8 8 8 9 9 9 9 9 9 9 8 9 11 13 14 15 16 16 15 15 14 11 8 7 6 6 4 3 2 1 2 2 3 3 3 3 4 6
12 12 12 12 12 12 12 12 12 12 12 12 12 12 12 12 11 11 11 10 9 9 9 9 10 10 9 8 8 8 8 8 9 9 9 9 10 9 9 9 9 8 7 7 8 9 11 12 13 14 14 14 11 8 7 6 3 1 5 7 8 8 7 6 6 6 6 4 3
13 13 12 12 12 12 11 12 12 12 12 12 12 12 11 11 11 10 10 9 9 10 10 10 10 10 10 9 9 9 9 9 9 9 9 9 10 9 9 9 7 4 4 6 5 3 3 5 7 8 9 10 7 5 4 1 4 7 8 9 9 10 9 9 9 9 9 9 8
14 13 13 13 12 12 12 11 11 11 11 11 11 11 11 11 11 11 10 9 8 8 9 9 10 9 9 9 8 8 9 8 9 9 9 9 9 9 9 8 3 4 9 9 8 6 4 2 4 6 7 7 5 3 4 7 9 9 9 9 9 10 10 10 11 11 10 10 8
14 14 14 13 13 12 12 12 11 11 11 11 11 11 11 11 11 10 10 8 7 7 7 8 8 8 7 6 7 7 7 7 7 7 7 6 6 7 7 5 4 8 11 10 8 6 4 4 7 9 10 8 6 7 9 11 10 10 11 11 11 11 12 12 12 11 11 10 9
15 15 14 14 13 13 13 12 12 12 12 12 12 11 11 10 9 9 8 7 6 7 7 7 7 7 6 5 4 3 2 1 1 2 3 4 3 1 2 4 6 8 10 9 7 5 3 5 10 12 11 9 8 9 10 10 10 11 12 13 13 13 13 13 12 11 10 9 9
15 15 15 14 14 13 13 13 13 12 12 12 12 11 11 10 9 8 7 7 6 7 7 7 6 6 5 4 5 8 10 10 9 9 9 10 9 7 6 7 7 7 7 8 6 3 2 6 11 13 12 10 10 10 10 10 10 10 12 13 12 12 12 11 11 11 12 12 11
14 14 14 14 14 14 14 13 13 13 13 12 11 10 10 9 9 8 7 7 7 7 7 6 6 5 6 10 11 13 14 13 11 10 10 10 10 9 8 8 7 6 6 7 5 3 2 7 11 13 13 12 12 11 11 10 10 10 10 11 10 11 10 9 9 11 13 15 16
14 14 14 14 14 14 14 14 14 14 13 13 11 10 9 8 8 7 7 6 6 6 5 4 6 9 11 12 13 13 14 13 12 12 12 11 11 10 9 8 7 6 6 6 5 3 4 7 11 14 15 14 13 11 11 11 11 11 10 10 10 10 10 9 9 10 13 17 20
14 14 14 14 14 14 14 14 14 13 13 12 11 10 9 8 6 6 5 4 4 5 8 10 12 12 12 13 14 14 14 13 13 13 13 12 12 11 11 9 8 7 6 6 7 7 8 9 12 15 15 13 12 11 11 12 12 11 10 9 9 9 9 9 9 9 11 14 18
14 14 14 14 14 14 14 14 14 13 12 11 11 9 7 6 4 4 5 8 10 11 11 12 13 13 13 13 14 14 14 14 14 14 13 13 13 13 12 11 10 9 9 10 12 13 13 12 13 14 14 13 12 11 11 11 13 12 11 9 9 8 8 8 8 9 11 12 13
Wind_Direction
175 174 174 175 175 175 175 175 174 173 175 179 180 180 179 179 178 176 173 171 171 171 171 168 167 164 163 165 171 175 180 184 186 187 185 180 175 175 179 184 184 182 177 173 170 167 164 163 171 181 187 180 177 181 187 189 184 189 200 212 217 216 212 210 211 212 212 211 206
174 172 171 170 171 171 171 170 170 171 174 179 181 181 180 179 179 177 175 175 174 172 169 164 162 161 162 165 172 178 182 186 187 187 186 184 178 175 175 180 183 181 177 174 172 170 166 163 166 172 177 173 170 177 185 192 187 196 208 218 218 216 213 215 216 215 213 212 207
174 173 172 172 173 173 172 172 172 173 175 178 181 182 182 181 179 177 176 177 175 172 169 163 161 161 162 164 170 176 181 184 185 185 186 186 180 175 173 176 181 181 180 178 176 174 170 165 164 164 165 165 164 172 183 192 191 199 210 218 217 215 215 220 220 218 215 214 208
175 175 175 177 178 177 175 172 172 173 174 176 177 180 183 183 180 177 174 173 173 173 171 166 164 164 164 164 168 172 176 179 181 183 184 185 181 176 173 174 180 184 185 183 180 176 172 168 165 163 161 161 162 169 178 185 189 196 207 213 214 215 218 223 223 221 218 217 211
177 177 178 179 179 178 176 171 171 172 173 174 174 178 182 183 180 176 172 173 176 176 172 166 165 166 166 165 167 169 170 173 175 179 182 184 181 178 176 177 182 186 188 186 181 177 172 168 166 165 164 163 166 171 174 175 181 190 200 207 211 215 218 224 225 224 221 220 216
178 178 178 178 178 177 175 172 172 173 173 173 174 178 181 182 181 179 178 178 177 175 172 167 165 165 166 166 169 169 170 169 173 178 182 183 182 181 180 182 185 187 189 188 184 178 173 169 167 166 167 166 168 171 171 171 178 188 197 204 209 214 219 223 225 224 222 221 218
178 177 178 177 178 178 176 171 171 172 173 174 176 179 182 183 182 181 181 178 176 177 179 176 169 167 167 168 171 173 174 173 175 179 182 183 183 184 185 186 186 187 188 188 186 182 177 172 170 169 168 167 167 169 170 173 181 190 198 204 208 213 218 224 226 225 222 219 217
177 178 177 177 178 178 177 170 170 172 175 177 179 181 183 183 182 182 181 179 179 182 185 185 175 170 169 171 174 176 177 177 179 181 183 184 185 186 187 188 187 186 186 184 181 179 176 173 172 171 170 168 166 168 173 179 186 193 200 206 209 214 218 223 226 225 222 217 215
178 178 177 176 177 178 176 171 172 175 178 179 181 182 183 183 182 182 182 182 183 184 186 184 175 171 171 174 176 178 179 180 181 183 185 186 187 188 188 187 186 185 183 180 177 175 174 173 173 173 171 169 167 171 178 185 191 196 202 207 211 215 219 224 227 227 224 217 214
177 177 176 175 176 177 175 173 175 177 179 179 181 181 181 182 182 183 185 185 187 188 186 179 173 172 173 177 179 180 181 182 182 183 185 186 188 188 188 187 186 184 182 179 177 174 173 173 174 173 172 170 170 176 184 191 196 200 203 207 212 215 219 223 226 227 224 219 214
175 175 174 173 174 174 174 174 176 179 181 180 179 179 179 180 182 183 183 179 180 181 180 176 174 174 176 179 180 182 182 183 184 184 184 186 187 187 187 187 186 184 182 180 178 176 175 175 176 176 176 174 175 181 190 198 202 205 208 212 213 216 218 221 223 224 224 220 217
173 173 173 172 171 172 173 175 177 181 183 182 180 179 179 180 182 181 178 174 174 174 175 175 177 177 178 180 181 182 183 184 184 184 184 185 186 187 187 188 186 185 183 182 180 178 178 179 179 180 180 181 182 187 194 200 206 210 214 218 218 219 220 220 221 222 222 221 219
172 172 172 171 171 172 174 176 177 181 184 184 182 180 179 180 179 178 177 176 175 173 172 173 176 179 180 181 181 181 182 183 183 183 184 185 185 186 187 189 188 186 185 184 183 182 183 184 184 185 185 186 189 193 197 201 206 212 217 221 223 224 224 223 222 222 222 221 220
172 172 173 172 172 173 175 178 178 182 185 186 184 182 180 179 178 178 178 180 178 175 171 170 175 179 182 183 181 181 181 181 181 182 183 183 185 186 188 189 189 188 187 186 186 186 187 189 190 190 190 190 194 197 200 202 208 213 217 221 224 226 227 227 225 224 222 222 222
172 174 174 174 174 175 177 179 180 182 185 187 186 184 181 180 177 178 180 182 181 178 174 172 176 180 183 184 182 181 180 180 180 180 181 181 183 186 187 189 188 188 187 188 188 189 191 193 194 194 194 194 197 201 203 206 210 214 218 221 223 225 228 230 230 228 226 223 222
174 175 176 176 177 178 180 182 182 182 184 187 186 184 181 180 177 178 181 183 181 180 178 177 178 180 183 184 183 181 180 180 180 180 180 180 182 184 186 187 187 187 186 187 188 190 193 194 195 195 195 197 200 203 207 210 214 217 220 222 223 224 226 229 231 231 230 227 225
177 178 178 179 180 180 182 183 183 182 183 185 184 182 181 180 177 178 181 182 181 181 181 181 179 179 180 181 181 181 182 182 183 182 182 180 181 182 184 186 186 185 185 185 187 189 191 192 193 194 196 198 202 206 210 213 217 219 221 221 221 222 224 226 228 230 230 229 227
181 180 180 180 181 182 183 184 183 181 181 181 182 181 180 179 177 178 180 182 182 181 182 181 180 179 179 179 180 181 182 185 186 186 185 183 181 182 183 184 184 184 184 184 186 187 188 189 190 191 194 199 203 207 211 215 219 220 221 220 219 219 220 221 223 224 224 223 222
183 182 182 182 183 182 182 183 182 180 179 179 181 180 180 179 178 178 180 184 184 183 181 180 180 180 180 179 179 179 181 184 186 187 186 184 182 182 182 184 183 184 184 185 186 187 187 188 189 191 194 198 203 208 212 216 219 221 222 221 218 217 216 216 216 216 215 212 213
185 184 183 183 182 182 181 182 181 179 178 178 180 181 180 180 179 179 181 184 184 183 182 179 179 179 179 179 179 178 179 182 184 185 185 185 184 184 184 185 185 185 187 188 188 189 189 190 191 192 195 198 203 207 212 215 219 222 223 223 220 217 214 211 211 211 212 212 216
184 183 182 180 180 180 180 181 181 180 179 179 181 181 181 181 181 182 182 182 183 183 182 181 179 179 179 179 180 179 179 178 180 182 183 183 185 186 186 186 187 188 190 191 192 192 192 192 193 194 196 200 204 207 211 214 217 220 222 222 220 218 215 213 212 212 214 218 224
180 179 177 177 177 178 179 180 182 182 182 182 182 182 182 182 184 184 182 179 181 183 184 183 181 180 179 180 181 181 180 179 180 181 181 182 184 185 185 186 187 189 192 193 194 194 194 194 195 197 199 202 206 209 212 213 216 218 219 219 218 217 215 213 211 211 212 215 220
175 174 174 176 176 177 179 181 183 185 185 184 184 184 184 184 186 184 182 179 181 184 186 186 184 183 182 181 182 182 182 183 184 185 184 182 182 182 182 183 185 188 190 192 193 194 195 195 196 198 201 205 210 214 216 217 216 216 216 215 216 215 215 213 210 208 208 210 213
174 173 174 176 177 178 179 182 185 186 187 186 185 185 186 185 185 184 182 181 183 186 188 188 187 186 184 184 184 185 186 187 188 188 188 187 184 182 180 181 183 185 186 188 190 190 191 192 195 198 201 206 212 217 219 219 217 214 212 210 211 212 213 212 209 207 207 208 210
176 175 175 177 178 179 181 183 186 187 188 186 185 185 185 184 184 183 183 183 185 187 189 190 189 187 186 186 187 188 190 191 191 191 191 190 188 185 182 182 182 183 183 183 182 182 184 186 190 194 199 203 209 213 215 214 211 208 205 203 203 205 208 211 211 210 211 212 213
179 178 177 179 179 180 181 184 186 187 187 184 183 184 184 183 183 183 184 185 186 187 189 190 189 188 187 188 189 191 193 195 194 193 192 191 189 187 186 185 184 183 182 178 176 176 178 180 183 186 190 195 198 201 203 204 202 200 198 195 196 198 202 207 212 215 217 219 220
180 180 180 181 179 180 181 182 184 185 185 183 183 183 183 182 183 184 185 186 185 186 187 190 189 188 188 190 192 193 194 196 195 194 192 191 189 189 189 189 187 185 182 177 175 175 177 177 178 179 181 186 188 190 193 195 194 194 193 193 194 197 201 207 213 217 221 226 229
180 180 180 180 178 178 179 180 182 183 184 183 182 181 181 182 184 185 185 185 184 184 186 191 190 189 190 193 194 194 194 195 194 193 193 192 191 190 190 191 190 188 183 179 178 178 180 180 179 178 177 181 183 186 188 190 191 192 195 198 201 204 208 212 216 220 225 230 234
179 179 179 180 177 176 176 179 182 183 183 182 181 181 181 182 184 185 185 184 183 184 187 190 189 190 192 195 195 194 194 194 193 193 192 194 195 194 193 193 192 189 185 181 181 183 184 185 184 182 181 181 185 188 190 191 193 197 202 208 213 216 220 222 225 228 231 234 237
179 179 179 179 176 175 176 179 181 182 182 182 183 182 183 184 185 185 185 185 185 186 186 187 188 191 193 193 192 192 194 195 194 193 193 196 199 200 199 196 194 191 187 184 185 186 187 188 188 188 187 187 191 196 200 202 204 209 214 221 224 227 228 229 230 232 234 236 237
180 180 179 178 176 176 177 178 180 182 183 185 185 185 185 185 187 187 187 187 187 186 185 185 188 190 192 191 191 192 194 195 195 196 197 198 201 203 204 202 200 195 189 185 187 189 191 192 192 193 192 192 195 201 207 209 213 217 224 232 255 269 268 260 264 266 259 243 238
181 181 180 179 178 178 178 178 179 182 184 186 187 187 187 187 189 189 189 188 187 185 185 186 189 190 191 191 192 193 195 196 197 199 200 201 203 206 207 208 207 197 181 167 178 187 193 196 197 198 198 196 199 204 208 212 201 82 52 46 41 37 36 41 40 37 34 33 24
182 182 182 181 180 180 179 178 180 181 184 187 188 188 188 189 190 190 190 189 188 187 186 188 189 191 192 192 194 195 197 198 199 200 201 201 203 205 208 211 208 183 113 90 93 113 160 188 196 197 195 193 198 202 202 157 74 66 62 58 53 50 49 52 49 45 41 40 39
183 183 184 183 182 180 180 179 180 181 183 187 189 189 189 189 190 191 192 191 190 188 188 189 190 192 193 193 193 195 197 199 200 201 201 202 202 204 205 206 178 78 61 59 57 56 60 91 140 152 154 153 153 135 99 77 73 70 67 65 59 54 51 52 50 47 45 43 43
183 184 184 184 183 181 180 180 180 181 184 187 190 191 191 190 191 192 192 191 189 189 190 190 190 191 192 192 192 195 197 200 201 200 200 202 203 204 200 183 105 61 47 44 44 44 55 96 124 129 128 123 116 101 88 80 78 74 70 65 58 54 52 52 50 47 45 44 44
184 184 184 184 183 182 181 180 180 182 184 188 191 192 192 191 192 191 190 186 186 187 188 188 188 187 187 187 183 176 164 159 65 34 26 20 20 42 119 106 74 50 35 26 27 32 68 129 135 131 124 114 105 97 91 87 82 79 75 71 65 60 57 57 56 52 48 44 42
184 184 184 184 184 183 182 180 181 183 186 189 191 191 191 190 191 189 186 182 184 187 188 185 184 181 169 128 76 55 47 45 46 45 41 35 33 38 50 61 53 37 20 7 8 19 102 148 144 135 124 112 107 103 98 93 88 83 80 77 73 68 65 63 60 56 52 48 44
185 185 185 185 185 184 183 182 183 185 187 189 190 190 189 188 189 187 184 180 184 186 187 184 171 140 101 84 69 55 46 42 44 47 48 44 38 38 42 47 38 22 4 354 359 18 127 159 150 137 125 116 114 110 105 98 93 89 85 82 78 72 68 66 62 59 55 52 50
185 185 186 186 186 185 185 185 185 186 187 187 188 188 187 186 186 184 182 180 184 178 162 127 100 88 82 80 76 66 55 48 46 46 47 46 39 37 38 41 28 11 358 355 12 54 123 152 143 132 122 118 118 115 110 105 99 95 91 88 84 78 72 68 66 63 59 55 53
186 186 186 187 187 187 187 187 188 187 187 186 186 186 185 182 182 176 164 147 121 97 87 84 83 83 83 83 79 73 64 56 52 50 50 49 44 40 38 37 26 16 12 21 52 78 102 122 124 120 117 115 116 115 113 110 104 99 94 91 89 84 78 72 69 66 63 58 54
186 186 187 188 188 188 189 190 190 188 186 185 183 181 174 160 143 115 96 88 87 86 87 89 89 87 85 83 82 80 74 66 59 55 53 52 48 43 39 36 33 32 38 50 65 75 84 93 100 105 108 111 114 114 114 112 108 103 99 95 93 90 86 79 73 69 65 61 56